Regional Weather Roundup
Issued by NWS

Home | Current Version | Previous Version | Text Only | Print | Product List | Glossary On
Versions: 1 2 3 4 5 6 7 8 9 10 11 12 13 14 15 16 17 18 19 20 21 22 23 24 25 26 27 28 29 30 31 32 33 34 35 36 37 38 39 40 41 42 43 44 45 46 47 48 49 50
000
ASUS43 KIND 231509
RWRIN

WEATHER ROUNDUP FOR INDIANA
NATIONAL WEATHER SERVICE INDIANAPOLIS IN
1100 AM EDT TUE MAY 23 2017

NOTE: "FAIR" INDICATES FEW OR NO CLOUDS BELOW 12,000 FEET WITH NO
SIGNIFICANT WEATHER AND/OR OBSTRUCTIONS TO VISIBILITY.

* - STATION DOES NOT REPORT WEATHER SUCH AS PRECIPITATION OR FOG.

+ - STATION NOT QUALITY CONTROLLED BY THE NATIONAL WEATHER SERVICE.
    USE DATA WITH CAUTION...ESPECIALLY DEWPOINT AND RELATIVE
    HUMIDITY OBSERVATIONS.

INZ001>003-010>013-019-020-231600-
NORTHWEST INDIANA

CITY           SKY/WX    TMP DP  RH WIND       PRES   REMARKS
GARY /AIRPORT/ LGT RAIN  61  55  82 W13       29.84S
KNOX *+        PTSUNNY   64  43  45 CALM      29.82F
LA PORTE +     CLOUDY    64  55  71 W7        29.84S
MICHIGAN CITY+ CLOUDY    63  54  72 W6        29.84S
MONTICELLO +   MOSUNNY   66  53  61 E5        29.82F
RENSSELAER +   CLOUDY    64  54  68 W7        29.83S
VALPARAISO     LGT RAIN  64  55  72 W10       29.84S

$$

LMZ046-743>745-231600-
SOUTHERN LAKE MICHIGAN

STATION/POSITION TIME  TEMP    WIND        PRES    WAVE
                       AIR SEA DIR/SP/G            HT
                 (UTC) (F)     (DEG/KT/KT) (MB)    (FT)
BURNS HARBOR     1440   59     250/ 10/ 13 1010.5S
MICHIGAN CITY    1440   59     240/ 11/ 11   N/A
5NW MICH CITY    1500   56 53  240/  6/  8   N/A     1

$$

INZ004-005-014>016-021>024-231600-
NORTH CENTRAL INDIANA

CITY           SKY/WX    TMP DP  RH WIND       PRES   REMARKS
ELKHART        SUNNY     64  52  63 CALM      29.84F
GOSHEN           N/A     67  50  54 NW3       29.83F
LOGANSPORT +   CLOUDY    64  50  59 SE5       29.84F
PERU/GRISSOM   CLOUDY    64  51  61 S6        29.83S
ROCHESTER +    PTSUNNY   68  52  56 SE6       29.84F
SOUTH BEND     CLOUDY    64  54  69 S5        29.84F
WARSAW +       CLOUDY    64  50  59 CALM      29.84S

$$

INZ006>009-017-018-025>027-231600-
NORTHEAST INDIANA

CITY           SKY/WX    TMP DP  RH WIND       PRES   REMARKS
ANGOLA *+      MOSUNNY   66  52  59 VRB3      29.84F
AUBURN +       MOSUNNY   66  46  48 CALM      29.86F
FORT WAYNE     PTSUNNY   67  49  52 S6        29.86F
HUNTINGTON +   PTSUNNY   64  49  59 CALM      29.85S
KENDALLVILLE + CLOUDY    68  50  53 SE3       29.85F

$$

INZ028-029-035-036-043>045-051>053-231600-
WEST CENTRAL INDIANA

CITY           SKY/WX    TMP DP  RH WIND       PRES   REMARKS
CRAWFORDSVL +  PTSUNNY   62  53  72 SE5       29.84F
GREENCASTLE +  CLOUDY    63  50  63 SE7       29.84F
LAFAYETTE      CLOUDY    65  54  67 VRB5      29.82F
TERRE HAUTE    CLOUDY    64  51  62 S3        29.83F

$$

INZ030>032-037>040-046>048-054>057-064-065-231600-
CENTRAL INDIANA

CITY           SKY/WX    TMP DP  RH WIND       PRES   REMARKS
CP ATTERBURY + CLOUDY    64  50  59 SE6       29.83F
COLUMBUS       SUNNY     64  48  55 SE7       29.82F
FISHERS *+     CLOUDY    64  54  68 SE7       29.84
FRANKFORT +    CLOUDY    66  54  64 SE3       29.85F
GREENWOOD *+   MOSUNNY   65  49  56 S8        29.83F
INDIANAPOLIS   PTSUNNY   65  50  58 SE7       29.83F
-EAGLE CREEK   CLOUDY    64  48  56 VRB5      29.83F
KOKOMO +       CLOUDY    63  52  67 CALM      29.85F
MARION +       PTSUNNY   66  48  52 SE6       29.84F HAZE
MT COMFORT *+  CLOUDY    64  48  55 SE7       29.84F
SHELBYVILLE    CLOUDY    69  46  43 E9        29.82F
ZIONSVILLE +   CLOUDY    63  49  59 S6        29.84F

$$

INZ033-034-041-042-049-050-058-059-231600-
EAST CENTRAL INDIANA

CITY           SKY/WX    TMP DP  RH WIND       PRES   REMARKS
MUNCIE         MOSUNNY   68  46  45 S8        29.84F
RICHMOND +     MOSUNNY   64  46  52 E12       29.85F

$$

INZ060-061-067>069-081>083-085>088-231600-
SOUTHWEST INDIANA

CITY           SKY/WX    TMP DP  RH WIND       PRES   REMARKS
EVANSVILLE     CLOUDY    70  51  51 CALM      29.81F
HUNTINGBURG *+ MOSUNNY   67  55  65 VRB3      29.81F
WASHINGTON +   PTSUNNY   67  49  53 SE5       29.82S

$$

INZ062-063-066-070>080-084-089>092-231600-
SOUTH CENTRAL AND SOUTHEAST INDIANA

CITY           SKY/WX    TMP DP  RH WIND       PRES   REMARKS
BEDFORD +      CLOUDY    64  50  59 E7        29.82F
BLOOMINGTON    CLOUDY    65  49  56 SE6       29.82F
MADISON *+     SUNNY     68  50  52 E7        29.84F
NORTH VERNON + CLOUDY    64  50  59 SE6       29.84F
SEYMOUR +      MOSUNNY   68  52  56 E9        29.82F

$$





USA.gov is the U.S. government's official web portal to all federal, state and local government web resources and services.